Location: *
(45.8589°N, 4.7139°E)
Time: 10:44:32
(UTC+00:00)

SAR-Lupe-2 - Pass Details

Date: 09 April 2020
Orbit: 481 x 485 km, 98.1° (Epoch: 27 May)

Event Time Altitude Azimuth Distance (km) Brightness Sun altitude
Rises 20:15:53 0° 16° (NNE) 2,554 7.5 -19.2°
Reaches altitude 10° 20:17:58 10° 20° (NNE) 1,669 6.4 -19.5°
Enters shadow 20:21:13 59° 73° (ENE) 564 3.6 -19.9°
